Location: McFarlands Corners
(41.4117°N, 81.3382°W)
Time: 10:02:13
(UTC+00:00)

Vanguard 1 Rocket - Pass Details

Date: 22 February 2026
Orbit: 653 x 4214 km, 34.3° (Epoch: 8 March)

Event Time Altitude Azimuth Distance (km) Brightness Sun altitude
Rises 23:37:35 0° 279° (W) 5,879 13.3 -6.3°
Reaches altitude 10° 23:41:13 10° 271° (W) 5,291 13.0 -7.0°
Maximum altitude 23:56:18 38° 211° (SSW) 4,701 11.3 -9.8°
Drops below altitude 10° 00:18:04 10° 154° (SSE) 7,408 11.8 -13.9°
Sets 00:24:38 0° 147° (SSE) 8,375 12.0 -15.1°
